Location: Tel Aviv
(32.0670°N, 34.7670°E)
Time: 12:01:21
(UTC+03:00)

Transit 2A - Pass Details

Date: 26 January 2022
Orbit: 598 x 960 km, 66.7° (Epoch: 20 May)

Event Time Altitude Azimuth Distance (km) Brightness Sun altitude
Rises 10:52:49 0° 221° (SW) 3,439 9.7 37.2°
Reaches altitude 10° 10:55:19 10° 227° (SW) 2,551 9.1 37.4°
Maximum altitude 11:01:05 47° 300° (WNW) 1,213 7.2 37.7°
Drops below altitude 10° 11:07:10 10° 14° (NNE) 2,692 8.5 38.1°
Sets 11:09:53 0° 20° (NNE) 3,646 9.1 38.2°
